TimeMST,TemperatureF,Dew PointF,Humidity,Sea Level PressureIn,VisibilityMPH,Wind Direction,Wind SpeedMPH,Gust SpeedMPH,PrecipitationIn,Events,Conditions,WindDirDegrees,DateUTC
12:56 AM,44.1,36.0,73,29.75,-9999.0,NW,16.1,-,N/A,,Unknown,310,2012-11-22 07:56:00
1:56 AM,43.0,36.0,76,29.79,-9999.0,NW,13.8,23.0,N/A,,Unknown,310,2012-11-22 08:56:00
2:56 AM,41.0,35.1,79,29.80,-9999.0,WNW,12.7,-,N/A,,Unknown,300,2012-11-22 09:56:00
3:56 AM,46.0,35.1,66,29.83,-9999.0,WNW,21.9,29.9,N/A,,Unknown,300,2012-11-22 10:56:00
4:56 AM,44.1,35.1,71,29.88,-9999.0,NW,21.9,28.8,N/A,,Unknown,310,2012-11-22 11:56:00
5:56 AM,43.0,33.1,68,29.92,-9999.0,NW,26.5,33.4,N/A,,Unknown,310,2012-11-22 12:56:00
6:56 AM,41.0,30.0,65,29.97,-9999.0,NW,24.2,33.4,N/A,,Unknown,310,2012-11-22 13:56:00
7:56 AM,39.9,27.0,60,30.02,-9999.0,WNW,25.3,33.4,N/A,,Unknown,300,2012-11-22 14:56:00
8:56 AM,37.9,28.0,68,30.06,-9999.0,NW,18.4,27.6,N/A,,Unknown,320,2012-11-22 15:56:00
9:56 AM,43.0,28.9,58,30.08,-9999.0,NW,20.7,-,N/A,,Unknown,320,2012-11-22 16:56:00
10:56 AM,45.0,26.1,48,30.09,-9999.0,WNW,28.8,38.0,N/A,,Unknown,300,2012-11-22 17:56:00
11:56 AM,44.1,27.0,51,30.11,-9999.0,NW,27.6,35.7,N/A,,Unknown,320,2012-11-22 18:56:00
12:56 PM,44.1,25.0,47,30.13,-9999.0,NW,32.2,38.0,N/A,,Unknown,310,2012-11-22 19:56:00
1:56 PM,41.0,24.1,51,30.17,-9999.0,WNW,29.9,43.7,N/A,,Unknown,300,2012-11-22 20:56:00
2:56 PM,37.0,21.9,54,30.20,-9999.0,NW,33.4,43.7,N/A,,Unknown,310,2012-11-22 21:56:00
3:56 PM,27.0,19.0,72,30.29,-9999.0,NW,31.1,41.4,N/A,,Unknown,320,2012-11-22 22:56:00
4:56 PM,24.1,12.0,60,30.36,-9999.0,NW,28.8,41.4,N/A,,Unknown,320,2012-11-22 23:56:00
5:56 PM,21.0,10.0,63,30.41,-9999.0,NW,27.6,38.0,N/A,,Unknown,310,2012-11-23 00:56:00
6:56 PM,19.9,10.0,65,30.45,-9999.0,NW,24.2,34.5,N/A,,Unknown,310,2012-11-23 01:56:00
7:56 PM,18.0,9.0,68,30.50,-9999.0,NW,21.9,28.8,N/A,,Unknown,320,2012-11-23 02:56:00
8:56 PM,17.1,8.1,68,30.52,-9999.0,NW,25.3,33.4,N/A,,Unknown,320,2012-11-23 03:56:00
9:56 PM,16.0,8.1,71,30.52,-9999.0,NNW,27.6,33.4,N/A,,Unknown,330,2012-11-23 04:56:00
10:56 PM,14.0,9.0,80,30.53,-9999.0,NW,17.3,-,N/A,,Unknown,310,2012-11-23 05:56:00
11:56 PM,14.0,8.1,77,30.56,-9999.0,NW,19.6,25.3,N/A,,Unknown,310,2012-11-23 06:56:00